, TX

(GMT )
Ingleside

Weather History for KTFP - December, 2012

Change the Weather History Date:

Thursday, December 20, 2012

  Actual Average (WUND) Record (WUND)
Temperature  
Mean Temperature 56 °F -  
Max Temperature 73 °F - - (-1)
Min Temperature 38 °F - - (-1)
Degree Days  
Heating Degree Days 10    
Growing Degree Days 6 (Base 50)    
Moisture  
Dew Point 21 °F    
Average Humidity 29    
Maximum Humidity 93    
Minimum Humidity 10    
Precipitation  
Precipitation 0.00 in - - ()
Sea Level Pressure  
Sea Level Pressure 30.26 in    
Wind  
Wind Speed 17 mph (NNW)    
Max Wind Speed 30 mph    
Max Gust Speed 41 mph    
Visibility 9 miles    
Events      
Averages and records for this station are not official NWS values.
T = Trace of Precipitation, MM = Missing Value Source: NWS Daily Summary

Daily Weather History Graph

Daily Weather History Graph

Search for Another Location

Airport or City:

Astronomy

Dec. 20, 2012 Rise Set
Actual Time 7:15 AM CST 5:38 PM CST
Civil Twilight 6:49 AM CST 6:03 PM CST
Nautical Twilight 6:20 AM CST 6:33 PM CST
Astronomical Twilight 5:51 AM CST 7:01 PM CST
Moon 12:32 PM CST 12:30 AM CST
Length of Visible Light 11h 14m
Length of Day
10h 22m
First Quarter, 55% of the Moon is Illuminated
Dec 20
First Quarter
Dec 28
Full
Jan 4
Last Quarter
Jan 11
New
Jan 18
First Quarter

Hourly Weather History & Observations

Time (CST) Temp. Windchill Dew Point Humidity Pressure Visibility Wind Dir Wind Speed Gust Speed Precip Events Conditions
12:15 AM 72.5 °F - 70.3 °F 93% 29.79 in 5.0 mi South 10.4 mph - N/A   Mostly Cloudy
12:55 AM 72.5 °F - 70.3 °F 93% 29.79 in 5.0 mi SSW 10.4 mph - N/A   Mostly Cloudy
1:35 AM 72.0 °F - 70.0 °F 93% 29.81 in 5.0 mi SSW 6.9 mph - N/A   Overcast
1:55 AM 72.3 °F - 70.2 °F 93% 29.82 in 5.0 mi SSW 8.1 mph - N/A   Overcast
2:15 AM 72.9 °F - 70.5 °F 92% 29.87 in 5.0 mi WNW 11.5 mph - N/A   Overcast
2:35 AM 73.4 °F - 70.7 °F 91% 29.87 in 7.0 mi West 10.4 mph - N/A   Mostly Cloudy
2:55 AM 73.6 °F - 70.2 °F 89% 29.89 in 7.0 mi NW 16.1 mph 20.7 mph N/A   Mostly Cloudy
3:15 AM 72.9 °F - 65.7 °F 78% 29.92 in 10.0 mi NNW 27.6 mph 34.5 mph N/A   Overcast
3:35 AM 71.4 °F - 52.7 °F 52% 29.93 in 7.0 mi NNW 24.2 mph 31.1 mph N/A   Overcast
3:55 AM 69.6 °F - 44.6 °F 41% 29.95 in 7.0 mi North 19.6 mph 28.8 mph N/A   Overcast
4:15 AM 68.7 °F - 39.2 °F 34% 29.97 in 7.0 mi North 17.3 mph 23.0 mph N/A   Overcast
4:35 AM 66.4 °F - 35.2 °F 32% 29.99 in 7.0 mi NNW 16.1 mph 19.6 mph N/A   Overcast
4:55 AM 65.3 °F - 26.8 °F 23% 30.02 in 7.0 mi North 21.9 mph 28.8 mph N/A   Overcast
5:15 AM 65.1 °F - 21.9 °F 19% 30.05 in 7.0 mi North 21.9 mph 29.9 mph N/A   Overcast
5:35 AM 64.8 °F - 18.7 °F 17% 30.07 in 7.0 mi North 26.5 mph 34.5 mph N/A   Overcast
5:55 AM 63.3 °F - 18.7 °F 18% 30.10 in 7.0 mi NNW 20.7 mph 29.9 mph N/A   Scattered Clouds
6:15 AM 61.3 °F - 21.2 °F 21% 30.12 in 10.0 mi NNW 16.1 mph 23.0 mph N/A   Clear
6:35 AM 60.3 °F - 20.7 °F 22% 30.14 in 10.0 mi NNW 26.5 mph 31.1 mph N/A   Clear
6:55 AM 59.9 °F - 20.1 °F 22% 30.16 in 10.0 mi NNW 21.9 mph 27.6 mph N/A   Clear
7:15 AM 59.0 °F - 20.5 °F 23% 30.19 in 10.0 mi NNW 19.6 mph 26.5 mph N/A   Clear
7:35 AM 58.5 °F - 20.8 °F 23% 30.21 in 10.0 mi NNW 18.4 mph 25.3 mph N/A   Clear
7:55 AM 57.6 °F - 19.9 °F 23% 30.24 in 10.0 mi North 27.6 mph 34.5 mph N/A   Clear
8:15 AM 55.9 °F - 18.0 °F 23% 30.27 in 10.0 mi NNW 29.9 mph 38.0 mph N/A   Clear
8:35 AM 54.5 °F - 17.8 °F 24% 30.29 in 10.0 mi NNW 25.3 mph 34.5 mph N/A   Clear
8:55 AM 54.5 °F - 18.5 °F 24% 30.31 in 10.0 mi NNW 25.3 mph 32.2 mph N/A   Clear
9:15 AM 54.3 °F - 18.7 °F 25% 30.33 in 10.0 mi North 27.6 mph 35.7 mph N/A   Clear
9:35 AM 54.9 °F - 18.3 °F 24% 30.34 in 10.0 mi North 23.0 mph 36.8 mph N/A   Clear
9:55 AM 55.6 °F - 18.5 °F 23% 30.35 in 10.0 mi North 24.2 mph 35.7 mph N/A   Clear
10:15 AM 56.8 °F - 18.9 °F 23% 30.36 in 10.0 mi NNW 26.5 mph 33.4 mph N/A   Clear
10:35 AM 55.9 °F - 18.9 °F 24% 30.36 in 10.0 mi NNW 26.5 mph 36.8 mph N/A   Clear
10:55 AM 56.5 °F - 19.0 °F 23% 30.36 in 10.0 mi NNW 25.3 mph 36.8 mph N/A   Clear
11:15 AM 58.3 °F - 18.3 °F 21% 30.36 in 10.0 mi North 20.7 mph 38.0 mph N/A   Clear
11:35 AM 59.5 °F - 18.1 °F 20% 30.37 in 10.0 mi NNW 27.6 mph 33.4 mph N/A   Clear
11:55 AM 59.9 °F - 16.0 °F 18% 30.36 in 10.0 mi NNW 25.3 mph 35.7 mph N/A   Clear
12:15 PM 61.0 °F - 14.4 °F 16% 30.36 in 10.0 mi NNW 23.0 mph 35.7 mph N/A   Clear
12:35 PM 61.0 °F - 12.0 °F 15% 30.36 in 10.0 mi NNW 24.2 mph 35.7 mph N/A   Clear
12:55 PM 61.5 °F - 11.3 °F 14% 30.35 in 10.0 mi NNW 25.3 mph 36.8 mph N/A   Clear
1:15 PM 61.0 °F - 8.8 °F 13% 30.34 in 10.0 mi North 26.5 mph 41.4 mph N/A   Clear
1:35 PM 61.9 °F - 8.2 °F 12% 30.33 in 10.0 mi NNW 24.2 mph 34.5 mph N/A   Clear
1:55 PM 62.4 °F - 7.5 °F 11% 30.33 in 10.0 mi NNW 29.9 mph 34.5 mph N/A   Clear
2:15 PM 62.2 °F - 5.9 °F 11% 30.32 in 10.0 mi NNW 23.0 mph 34.5 mph N/A   Clear
2:35 PM 61.3 °F - 5.9 °F 11% 30.33 in 10.0 mi NNW 25.3 mph 32.2 mph N/A   Clear
2:55 PM 61.2 °F - 4.8 °F 11% 30.33 in 10.0 mi NNW 20.7 mph 29.9 mph N/A   Clear
3:15 PM 61.9 °F - 4.5 °F 10% 30.34 in 10.0 mi NNW 23.0 mph 29.9 mph N/A   Clear
3:35 PM 61.9 °F - 3.9 °F 10% 30.34 in 10.0 mi NNW 21.9 mph 28.8 mph N/A   Clear
3:55 PM 61.0 °F - 3.4 °F 10% 30.34 in 10.0 mi NNW 20.7 mph 29.9 mph N/A   Clear
4:15 PM 60.6 °F - 3.6 °F 10% 30.34 in 10.0 mi NNW 21.9 mph 27.6 mph N/A   Clear
4:35 PM 61.0 °F - 3.0 °F 10% 30.35 in 10.0 mi NNW 24.2 mph 29.9 mph N/A   Clear
4:55 PM 60.3 °F - 3.0 °F 10% 30.35 in 10.0 mi NNW 21.9 mph 26.5 mph N/A   Clear
5:15 PM 59.4 °F - 2.3 °F 10% 30.35 in 10.0 mi NNW 18.4 mph 26.5 mph N/A   Clear
5:35 PM 57.9 °F - 3.0 °F 11% 30.36 in 10.0 mi NNW 16.1 mph 23.0 mph N/A   Clear
5:55 PM 56.3 °F - 3.9 °F 12% 30.37 in 10.0 mi North 10.4 mph - N/A   Clear
6:15 PM 54.5 °F - 5.4 °F 14% 30.38 in 10.0 mi NNW 11.5 mph - N/A   Clear
6:35 PM 53.4 °F - 5.7 °F 15% 30.38 in 10.0 mi North 9.2 mph - N/A   Clear
6:55 PM 51.3 °F - 8.6 °F 18% 30.40 in 10.0 mi NNW 5.8 mph - N/A   Clear
7:15 PM 48.6 °F - 10.8 °F 22% 30.40 in 10.0 mi NNW 5.8 mph - N/A   Clear
7:35 PM 47.7 °F - 10.4 °F 22% 30.41 in 10.0 mi NNW 5.8 mph - N/A   Clear
7:55 PM 47.7 °F - 9.5 °F 21% 30.42 in 10.0 mi NNW 6.9 mph - N/A   Clear
8:15 PM 46.6 °F - 11.1 °F 24% 30.43 in 10.0 mi NNW 5.8 mph - N/A   Clear
8:35 PM 47.1 °F - 12.7 °F 25% 30.44 in 10.0 mi NNW 3.5 mph - N/A   Clear
8:55 PM 46.6 °F - 11.8 °F 25% 30.44 in 10.0 mi NNW 5.8 mph - N/A   Clear
9:15 PM 45.7 °F 42.0 °F 13.5 °F 27% 30.45 in 10.0 mi North 6.9 mph - N/A   Clear
9:35 PM 44.4 °F 40.5 °F 12.7 °F 28% 30.46 in 10.0 mi North 6.9 mph - N/A   Clear
9:55 PM 43.0 °F 39.5 °F 13.1 °F 30% 30.46 in 10.0 mi NNW 5.8 mph - N/A   Clear
10:15 PM 42.3 °F 37.9 °F 12.6 °F 30% 30.46 in 10.0 mi NNW 6.9 mph - N/A   Clear
10:35 PM 41.2 °F - 13.5 °F 32% 30.47 in 10.0 mi Calm Calm - N/A   Clear
10:55 PM 40.1 °F 38.0 °F 13.1 °F 33% 30.48 in 10.0 mi NW 3.5 mph - N/A   Clear
11:15 PM 39.6 °F 35.4 °F 11.3 °F 31% 30.48 in 10.0 mi NNW 5.8 mph - N/A   Clear
11:35 PM 38.8 °F 35.4 °F 11.8 °F 33% 30.49 in 10.0 mi NNW 4.6 mph - N/A   Clear
11:55 PM 38.5 °F 36.1 °F 12.4 °F 34% 30.49 in 10.0 mi North 3.5 mph - N/A   Clear